STARLINK-1494, 45760

Orbit data source: Space-Track

STARLINK-1494, 45760 is a payload satellite owned by SpaceX/Seattle (US) in LEO that was launched on Sat, 13 Jun 2020 UTC via an FALCON 9 launch vehicle from the Air Force Eastern Test Range (AFETR). Payloads include a variety of satellites, spacecraft, and rockets equipped with specific instruments for various scientific and technological missions. These include communications satellites like Starlink; space stations such as the ISS; scientific satellites like the Hubble; Earth observation satellites from companies like Planet Labs, Umbra, and HawkEye 360; GPS; miniature CubeSats for education and research; and military/defense satellites.

Loading next visibility...
STARLINK-1494 details
Identifier
45760, 2020-038AG
Orbit
LEO
Last TLE update5 hours ago
Origin
Flag of USSpaceX/Seattle (US)
ManufacturerSpaceX/Seattle
MissionOperational Commercial Communications
Bus & MotorSTARLINK, Unknown motor
Mass260 kg wet, ~248 kg dry
Launch date (UTC)
2020-06-13 (5 years ago)
Launch vehicle
FALCON 9
Launch site
Air Force Eastern Test Range (AFETR)
Object type
Payload
Rocket body
Debris
Shape & HBRBox + 1 Pan, 8.86 m
Radar Cross Section13.562 m², Large (>1 m²)

Expand to show TLE details & history

TLE from 5 hours ago
0 STARLINK-1494
1 45760U 20038AG  25044.59968157  .00002433  00000-0  18214-3 0  9991
2 45760  53.0547 163.3089 0001561  89.4393 270.6774 15.06411145257833
Epoch: 2025-02-13T14:23Z
Definitive object data (Epoch: 2025-02-13T14:23:32.487Z)
Latitude-0.0001°
Longitude163.54998°
Altitude548.044 km
Speed7.589 km/s
True Right ascension10h 53m 14s
True Declination0° 00' 00"
Sunlit
Object was in full shadow at TLE epoch
Visualization TLE readout
Latitude43.18216°
Longitude-62.02547°
Altitude550.523 km
Speed7.593 km/s
Apparent Right ascension15h 15m 41s
Apparent Declination11° 37' 54"
Sunlit
Object is in daylight
Visualization observer readout
Local Sidereal Time22:18:13
Azimuth288.957° WNW
Elevation-4.19°
Doppler factor1
Orbital elements
Apogee altitude548.529 km
Perigee altitude546.367 km
Semi-major axis6,925.585 km
Eccentricity0.0001561
Inclination53.0547°
RAAN163.3089°
Arg. of periapsis89.4393°
True anomaly270.65951°
Mean anomaly270.6774°
Eccentric anomaly270.66846°
Mean motion3.76581 °/min
BSTAR0.00018214
Orbital period95.6 mins
Loading maneuver chart data...

STARLINK-1494 Visibility forecast

Observer location: undefined°, undefined

Span
Click to sort rows by Start time (UTC) header in descending order
Start Az.
Max El. time (UTC)
Max El. Az.
Max El.
End time (UTC)
End Az.
6 mins2025-02-14 09:39:19.550Z187.06° SSW2025-02-14 09:42:19.550Z126.795° SE26.722°2025-02-14 09:45:19.550Z72.648° E
6 mins2025-02-14 11:19:19.550Z269.196° W2025-02-14 11:21:19.550Z316.834° NNW32.414°2025-02-14 11:25:19.550Z38.043° NE
5 mins2025-02-14 16:21:19.550Z338.078° N2025-02-14 16:23:19.550Z27.029° NE30.044°2025-02-14 16:26:19.550Z91.817° ESE
6 mins2025-02-14 18:00:19.550Z285.891° WNW2025-02-14 18:03:19.550Z213.961° SW29.831°2025-02-14 18:06:19.550Z163.057° S
|